Location: Boston
(42.3580°N, 71.0600°W)
Time: 08:26:32
(UTC-04:00)

Envisat - Pass Details

Date: 08 October 2017
Orbit: 764 x 766 km, 98.2° (Epoch: 19 October)

Event Time Altitude Azimuth Distance (km) Brightness Sun altitude
Exits shadow 19:01:12 12° 84° (E) 2,153 4.7 -9.7°
Maximum altitude 19:03:07 15° 60° (ENE) 1,995 4.6 -10.0°
Drops below altitude 10° 19:05:51 10° 27° (NNE) 2,310 5.2 -10.5°
Sets 19:09:08 0° 5° (N) 3,241 6.2 -11.1°
